SCP
0 0 0 -0 -0 0 0 0 -0 -0 -0 -0 -0 -0 -0 -0 -0 -0 -0 -0 0 0 0 0 0 0 0 0 0 0 0 0 0 0 0 0 0 0 0 0 0 0 -0 -0 -0 -0 -0 -0 -0
0 0 0 -0 -0 0 0 0 0 0 -0 -0 -0 -0 0 0 0 -0 -0 -0 0 0 0 0 0 0 0 0 0 0 0 0 0 0 0 0 0 0 0 0 0 0 0 -0 -0 -0 -0 -0 -0
0 -0 -0 -0 0 0 0 0 0 0 0 0 0 0 0 0 0 -0 -0 0 0 0 0 0 0 0 0 0 0 0 0 0 0 0 0 0 0 0 0 0 0 0 0 -0 -0 -0 0 0 -0
-0 -0 -0 -0 0 0 0 0 0 0 0 0 0 0 0 0 0 -0 -0 0 0 0 0 0 0 0 0 0 0 0 0 0 0 0 0 0 0 0 0 0 0 0 0 0 0 0 0 0 0
-0 -0 -0 0 0 0 0 0 0 0 0 0 0 0 0 0 0 0 0 0 0 0 0 0 0 0 0 0 0 0 0 0 0 0 0 0 0 0 0 0 0 0 0 0 0 0 0 0 0
0 0 0 0 0 0 0 0 0 0 0 0 0 0 0 0 0 0 0 0 0 0 0 0 0 0 0 0 0 0 0 0 0 0 0 0 0 0 0 0 0 0 0 0 0 0 0 0 0
0 0 0 0 0 0 0 0 0 0 0 0 0 0 0 0 0 0 0 0 0 0 0 0 0 0 0 0 0 0 0 0 0 0 0 0 0 0 0 0 0 0 0 0 0 0 0 0 0
0 0 0 0 0 0 0 0 0 0 0 0 0 0 1 1 1 0 0 0 0 0 0 0 0 0 0 0 0 0 0 0 0 0 0 0 0 0 0 0 0 0 0 0 0 0 0 0 0
0 0 0 0 0 0 0 0 0 0 0 1 1 1 1 1 1 1 1 0 0 0 0 0 0 0 0 0 0 0 0 0 0 0 0 0 0 0 0 0 0 0 0 0 0 0 0 0 0
0 0 0 0 0 0 0 0 0 0 1 1 1 1 2 1 1 1 1 1 0 0 0 0 0 0 0 0 0 0 0 0 0 0 0 0 0 0 0 0 0 0 0 0 0 0 0 0 0
-0 0 0 0 0 0 0 0 0 0 1 1 1 1 2 1 1 1 1 1 0 0 0 0 0 0 0 0 0 0 0 0 0 0 0 0 0 0 0 1 1 1 1 0 0 0 0 0 1
0 0 0 0 0 0 0 0 0 1 1 1 1 2 2 2 1 1 1 1 1 0 0 0 0 0 0 0 0 0 0 0 0 0 0 0 0 0 1 1 1 1 1 1 1 1 1 1 1
0 0 0 0 0 0 0 0 1 1 1 1 2 2 2 2 1 1 1 1 1 1 0 0 0 0 0 0 0 0 0 0 0 0 0 0 0 0 1 1 1 1 1 1 1 1 1 1 1
0 0 0 0 0 0 0 0 1 1 1 1 2 2 2 2 1 1 1 1 1 1 1 0 0 0 0 0 0 0 0 0 0 0 0 0 0 0 1 1 1 1 1 1 1 1 1 1 1
0 0 0 0 0 0 0 0 1 1 1 1 1 2 1 1 1 1 1 1 1 1 0 0 0 0 0 0 0 0 0 0 0 0 0 0 0 0 0 0 1 1 1 1 1 1 1 1 1
0 0 0 0 0 0 0 0 1 1 1 1 1 1 1 1 1 1 1 1 0 0 0 0 0 0 0 0 0 0 0 0 0 0 0 0 0 0 0 0 0 0 0 0 0 0 0 0 0
0 0 0 0 0 0 0 0 0 1 1 1 1 1 1 1 1 1 0 0 0 0 0 0 0 0 0 0 0 0 0 0 0 0 0 0 0 0 0 0 0 0 0 0 0 0 0 0 0
0 0 0 0 0 0 0 0 0 1 1 1 1 1 1 0 0 0 0 0 0 0 0 0 0 0 0 0 0 0 0 0 0 -0 0 0 0 0 0 0 0 0 0 0 0 0 0 0 0
0 0 0 0 0 0 0 0 0 0 1 1 1 0 0 0 0 0 0 0 0 0 0 0 0 0 0 0 0 0 0 0 0 0 0 0 0 0 0 0 0 0 0 0 0 0 0 0 0
0 0 0 0 0 0 0 0 0 0 0 0 0 0 0 0 0 0 0 0 0 0 0 0 0 0 0 0 0 0 0 0 0 0 0 0 0 0 0 0 0 0 0 0 0 0 0 0 0
0 0 0 0 0 0 0 0 0 0 0 0 0 0 0 0 0 0 0 0 0 0 0 0 0 0 0 0 0 0 0 0 0 0 0 0 0 0 0 0 0 0 0 0 0 0 0 0 0
0 0 0 0 0 0 0 0 0 0 0 0 0 0 0 0 0 0 0 0 0 0 0 0 0 0 0 0 0 0 0 0 0 0 0 0 0 0 0 0 0 0 0 0 0 0 0 0 0
0 0 0 0 0 0 0 0 0 0 0 0 0 0 0 0 0 0 0 0 0 0 0 0 1 1 1 0 0 0 0 0 0 0 0 0 0 0 0 0 0 0 0 0 0 0 0 0 0
0 0 0 0 0 0 0 0 0 0 0 0 0 0 0 0 0 0 0 0 0 0 0 0 1 1 1 0 0 0 0 0 0 0 0 0 0 0 0 0 0 0 0 0 0 0 0 0 0
0 0 0 0 0 0 0 0 0 0 0 0 0 0 0 0 0 0 0 0 0 0 0 0 1 1 1 0 0 0 0 0 0 0 0 0 0 0 0 0 0 0 0 0 0 0 0 0 0
0 0 0 0 0 0 0 0 0 0 0 0 0 0 0 0 0 0 0 0 0 0 0 0 0 0 0 0 0 0 0 0 0 0 0 0 0 0 0 0 0 0 0 0 0 0 0 0 0
0 0 0 0 0 0 0 0 0 0 0 0 0 0 0 0 0 0 0 0 0 0 0 0 0 0 0 0 0 0 0 0 0 0 0 0 0 0 0 0 0 0 0 0 0 0 0 0 0
0 0 0 0 0 0 0 0 0 0 0 0 0 0 0 0 0 0 0 0 0 0 0 0 0 0 0 0 0 0 0 0 0 0 0 0 0 0 0 0 0 0 0 0 0 0 0 0 0
0 0 0 0 0 0 0 0 0 0 0 0 0 0 0 0 0 0 0 0 0 0 0 0 0 0 0 0 0 0 0 0 0 0 0 0 0 0 0 0 0 0 0 0 0 0 0 0 0
0 0 0 0 -0 -0 -0 0 0 0 0 0 0 0 0 0 0 0 0 0 0 0 0 0 0 0 0 0 0 0 0 0 0 0 0 0 0 0 0 0 0 0 0 0 0 0 0 0 0
Wind_Speed
14 11 7 5 7 7 4 6 5 5 5 8 7 5 7 9 7 9 8 12 14 15 15 15 11 11 10 9 9 10 10 11 11 11 10 10 9 8 8 7 6 5 4 4 3 3 4 4 4
12 9 7 6 8 2 5 6 7 7 6 4 6 7 9 10 9 9 9 12 15 15 14 14 13 11 10 9 9 9 10 10 10 10 10 9 8 8 7 6 6 5 4 4 3 3 3 4 4
10 8 6 6 4 3 4 6 6 4 3 2 5 7 7 8 7 6 10 15 15 14 13 14 13 12 10 9 9 9 9 9 9 9 9 8 8 7 6 6 6 5 5 5 4 4 4 4 4
7 7 7 8 2 4 4 6 4 3 6 5 6 9 9 8 5 8 14 15 15 14 13 15 12 12 11 10 9 9 8 8 8 8 8 7 7 7 6 6 5 5 5 5 5 5 5 5 5
7 6 8 7 1 3 3 4 1 3 5 6 6 10 9 6 8 11 12 14 14 13 12 15 12 11 11 10 9 9 8 8 8 8 7 7 7 7 7 7 6 6 6 5 5 5 6 6 6
6 6 9 5 3 3 5 4 4 7 8 8 8 10 8 7 9 9 10 11 12 12 11 13 11 10 10 9 8 8 8 7 7 7 7 7 7 7 7 7 7 7 7 7 6 6 7 7 7
7 7 7 3 2 4 5 4 5 6 8 7 5 8 10 8 8 9 9 9 10 10 10 10 11 10 9 7 6 6 5 5 5 5 5 6 7 7 8 8 8 8 8 8 8 8 8 8 8
6 7 7 5 3 4 5 4 5 4 8 6 3 6 9 11 10 10 10 9 9 8 8 7 6 7 7 7 6 4 3 2 3 4 5 6 7 9 9 9 10 9 9 9 9 9 9 9 9
6 8 6 3 1 2 4 3 5 3 7 6 5 6 14 16 13 12 11 11 9 7 5 5 6 5 3 3 5 4 3 2 4 6 7 7 7 8 8 9 6 8 9 10 10 10 9 9 10
7 8 2 3 4 5 4 3 1 4 7 8 10 12 16 15 14 13 12 12 11 8 6 4 4 4 3 2 2 1 1 1 3 3 4 5 4 5 7 1 5 9 10 10 11 10 9 10 8
6 6 4 4 5 6 4 1 1 4 5 6 11 15 15 14 12 11 11 11 10 9 6 6 4 4 3 2 1 0 1 1 2 3 4 4 4 4 5 3 4 7 9 8 8 9 8 8 7
6 5 6 6 6 6 5 2 2 3 5 6 10 14 13 12 11 10 10 9 9 7 6 6 5 4 2 2 1 1 0 1 2 2 4 3 3 4 4 3 4 4 4 4 5 4 7 7 8
9 6 4 4 4 2 3 3 3 7 7 9 11 11 11 10 9 8 8 7 7 7 6 5 4 4 3 3 1 2 2 3 3 3 4 5 4 4 4 3 3 4 3 4 4 5 6 6 7
3 4 4 2 0 2 5 6 5 7 8 9 10 9 9 8 8 8 9 8 7 7 6 5 5 5 4 3 3 2 3 3 4 5 6 7 5 4 4 4 3 3 3 3 3 4 4 5 5
5 6 5 3 3 4 6 7 5 7 7 8 8 8 8 7 7 7 7 7 7 7 6 6 6 6 5 5 4 3 3 4 5 5 6 7 7 6 5 4 3 2 2 3 3 4 4 5 6
8 8 6 6 3 4 8 5 9 6 7 7 7 7 7 7 6 6 7 7 8 7 7 5 5 6 6 5 3 4 4 5 4 5 5 7 7 7 6 5 4 2 3 3 2 4 4 4 5
8 4 0 6 2 3 6 2 9 6 6 6 6 6 6 7 7 6 6 7 7 6 6 6 5 5 5 4 3 4 3 4 4 4 6 7 7 7 6 4 4 4 4 3 4 3 4 5 5
4 4 1 1 3 4 5 2 8 6 5 5 5 5 6 6 6 6 5 5 6 6 6 6 6 4 4 3 2 1 2 2 3 4 5 6 6 7 7 5 4 6 5 4 3 4 4 5 5
7 6 3 2 1 4 3 3 7 7 6 6 5 4 5 6 7 7 6 6 7 7 6 6 5 5 3 2 2 1 1 2 3 3 5 6 6 7 6 6 4 5 5 5 6 6 6 6 4
6 6 1 4 2 3 3 4 6 7 6 6 7 7 7 7 8 8 8 8 8 8 7 6 6 6 5 2 1 1 2 3 3 3 3 5 6 6 5 6 7 5 5 6 6 6 7 7 5
4 5 1 3 5 4 5 6 7 7 7 7 8 9 9 9 10 10 10 9 9 8 8 7 7 6 5 4 3 2 3 4 3 3 3 5 6 6 6 6 7 7 8 6 6 7 8 7 6
2 2 1 5 6 3 3 2 7 8 9 10 11 11 11 10 10 10 10 10 10 10 9 8 8 7 6 6 5 6 5 6 5 4 4 5 5 5 6 6 6 6 7 6 7 5 6 7 7
4 2 3 4 4 3 2 2 7 8 9 11 12 12 12 12 11 11 11 10 9 9 9 8 8 8 7 6 5 6 6 5 5 5 4 6 4 4 5 5 5 6 6 6 7 6 7 7 7
6 5 5 7 7 1 2 3 5 7 8 11 12 12 12 11 11 11 10 9 8 8 8 8 8 8 7 7 6 6 6 6 6 6 6 6 4 4 3 4 4 6 5 5 6 6 8 7 7
6 6 5 4 2 4 2 3 3 6 7 9 11 12 12 11 11 10 10 10 9 8 7 7 7 6 6 7 6 6 5 6 6 7 5 6 6 5 3 5 5 5 5 6 6 7 7 7 7
2 6 6 7 6 3 3 1 4 6 7 8 8 9 10 11 11 10 9 8 8 7 6 6 6 5 6 6 6 5 5 6 5 5 6 7 6 6 5 6 6 6 6 7 6 7 7 6 7
2 2 5 5 3 3 2 2 4 7 9 10 10 10 10 10 9 9 8 7 6 6 5 5 5 5 5 6 5 6 6 6 7 6 7 7 5 6 6 7 7 7 7 7 7 7 7 7 8
4 1 2 5 6 4 1 1 2 7 10 11 11 11 10 9 9 8 7 7 6 6 5 5 5 5 5 6 6 5 6 7 7 8 8 8 8 8 8 9 8 8 8 8 8 9 8 8 8
5 4 4 5 5 7 4 2 5 3 6 8 10 10 9 9 9 8 7 7 7 6 6 6 6 6 6 6 6 6 7 8 8 8 9 8 8 8 9 9 9 10 10 9 9 10 10 10 10
4 3 4 6 5 5 7 2 7 3 4 6 7 8 8 8 8 8 8 7 7 7 6 6 5 6 6 6 6 7 7 8 9 9 9 8 9 9 10 10 10 11 11 10 10 11 11 11 11
Wind_Direction
175 185 209 231 240 228 67 55 27 28 55 52 50 48 53 40 18 68 101 136 136 140 138 146 144 144 139 132 125 122 122 123 125 128 130 132 135 138 143 149 153 156 155 143 129 113 100 96 100
175 184 215 237 259 230 89 49 38 46 72 91 81 76 78 69 57 91 126 136 144 141 142 147 140 145 143 137 131 127 125 125 126 129 133 135 138 143 150 158 165 170 172 166 163 150 129 119 117
172 210 248 250 265 344 35 36 28 71 94 112 92 64 57 59 78 105 126 145 147 139 138 132 145 147 147 145 141 137 135 134 135 137 140 143 147 154 163 172 180 188 190 187 188 182 161 149 145
188 216 234 250 274 42 1 354 347 156 113 92 110 94 83 39 31 104 134 149 144 141 145 134 150 149 151 151 151 150 149 149 148 150 153 157 163 171 180 190 198 202 199 199 204 199 184 173 169
230 248 242 231 144 57 21 2 339 170 107 97 106 101 86 53 71 112 139 146 146 147 141 137 150 150 154 157 159 161 161 162 163 166 171 176 182 190 195 203 210 215 213 210 214 209 200 189 184
231 246 250 227 117 80 62 58 109 114 109 103 104 109 89 90 102 118 134 147 145 145 141 134 145 151 156 161 162 164 166 171 175 182 187 193 201 209 212 215 220 224 224 222 220 220 214 206 200
266 260 261 251 152 110 62 56 87 122 113 90 99 110 116 114 113 123 130 139 143 146 140 144 154 156 158 156 154 159 165 174 183 195 206 215 224 230 230 229 230 232 232 231 227 225 220 215 210
281 267 240 217 198 105 69 74 69 71 95 95 112 128 137 131 129 128 131 136 136 138 138 143 152 145 161 158 144 143 150 179 205 217 229 238 241 239 234 235 225 232 238 239 236 232 227 220 216
256 253 239 208 216 81 49 67 83 85 111 98 70 79 113 129 138 139 141 141 137 132 132 137 135 134 154 153 130 166 166 188 233 217 219 240 246 245 226 231 217 234 241 242 242 238 233 227 219
243 253 269 354 327 334 355 9 97 151 129 112 105 105 120 138 148 152 152 151 148 142 138 127 122 136 147 125 125 147 213 187 265 283 257 253 263 273 274 217 239 249 250 247 240 241 235 231 225
243 274 332 311 311 307 297 273 215 199 134 123 136 136 141 146 155 156 154 154 147 142 139 133 133 132 132 125 110 93 305 327 292 310 302 287 283 270 270 262 238 239 239 241 226 224 231 228 227
253 272 289 302 314 291 279 220 129 47 68 103 134 143 147 152 153 153 151 145 139 139 135 128 123 119 117 113 131 167 7 354 345 348 327 307 286 278 272 266 263 256 251 249 253 242 241 243 236
243 277 295 310 308 283 219 164 113 88 95 112 127 141 143 146 144 141 139 143 142 139 132 123 114 108 120 121 122 87 53 21 30 4 2 332 307 300 296 286 278 269 265 245 244 247 250 249 243
286 275 278 286 351 152 154 138 136 105 117 122 131 135 138 139 144 146 150 147 138 131 126 121 111 105 115 114 97 71 57 47 23 25 16 355 337 335 313 288 281 275 274 283 272 263 256 249 249
266 250 204 167 165 149 178 153 112 121 136 134 133 132 132 137 148 154 148 143 137 134 130 131 129 125 120 110 99 84 61 45 32 30 24 7 354 346 319 300 279 288 275 258 257 262 258 253 250
230 231 200 132 173 163 243 168 121 143 152 144 140 140 145 144 147 144 141 142 139 137 134 138 130 122 112 95 85 75 50 44 35 24 22 15 2 348 319 307 301 310 277 266 262 259 268 268 269
211 245 106 128 160 196 243 124 133 161 169 157 155 153 154 150 149 143 148 152 145 145 144 143 128 129 117 109 100 84 69 41 26 18 16 9 357 351 323 318 335 292 277 273 279 287 291 288 285
336 315 318 119 134 222 232 145 142 161 172 159 153 161 164 164 157 150 159 159 158 161 163 157 155 145 154 149 144 118 58 31 19 18 21 2 355 357 335 311 338 306 290 285 286 293 281 287 283
304 298 310 78 123 231 213 177 156 165 176 166 165 176 185 174 159 163 179 182 179 178 179 180 183 167 193 206 249 291 338 346 354 4 19 358 355 353 339 330 330 307 302 306 291 284 276 271 289
262 266 206 130 147 242 180 162 156 173 182 176 175 187 192 181 178 184 191 195 197 193 195 198 202 201 213 198 255 305 327 319 338 342 360 348 348 338 332 345 315 321 308 283 285 278 289 289 278
271 293 308 152 161 183 194 162 164 173 183 183 189 191 194 193 191 190 198 203 204 207 209 212 212 212 218 213 229 223 240 262 284 325 330 345 332 327 331 324 322 323 301 305 304 288 275 281 280
334 29 218 177 208 151 243 193 159 175 184 189 192 196 199 198 198 199 202 208 213 216 216 217 218 219 216 219 244 270 292 306 324 314 327 321 311 316 317 316 318 315 310 316 292 299 294 276 275
46 95 176 200 226 187 200 272 129 172 182 190 196 198 198 197 203 207 213 217 222 225 224 220 221 224 221 228 232 248 273 294 302 307 306 302 309 305 312 312 314 311 302 321 316 311 293 283 277
139 169 185 212 228 176 51 293 129 164 176 179 187 192 196 199 205 211 218 223 229 229 228 225 220 223 220 224 231 246 273 285 297 299 306 300 304 305 319 305 308 300 311 312 301 301 283 287 292
222 268 260 232 226 73 93 279 92 135 168 177 180 185 192 198 205 209 216 219 220 224 224 224 218 219 217 221 228 238 255 266 265 279 292 296 303 308 326 311 299 300 302 295 296 288 293 287 284
285 306 329 330 346 57 157 294 106 148 167 182 189 187 191 199 204 210 213 216 218 217 212 210 208 212 212 219 227 236 247 260 272 275 292 294 297 309 321 293 284 284 285 287 289 284 275 276 280
253 312 354 295 289 290 86 126 152 170 189 193 194 193 197 202 205 208 207 209 203 197 194 198 200 212 221 230 230 239 248 264 279 279 265 274 283 287 288 287 282 279 277 278 279 276 282 277 271
331 346 263 302 325 320 126 187 116 174 194 194 198 199 199 195 197 197 194 185 177 177 178 190 203 220 234 238 245 251 253 255 260 269 283 287 285 282 281 280 281 278 275 268 266 270 260 263 264
182 208 276 293 314 311 323 40 96 174 194 199 200 200 195 194 191 183 175 168 172 177 184 195 206 224 238 251 255 265 266 266 264 263 269 274 278 281 276 276 278 277 276 273 266 267 273 263 264
269 280 260 287 296 279 297 340 123 183 201 213 214 197 195 192 185 175 169 172 185 194 199 206 221 236 249 258 261 264 268 268 268 269 271 274 274 275 276 277 277 277 277 275 271 269 269 265 261